Time,TemperatureF,DewpointF,PressureIn,WindDirection,WindDirectionDegrees,WindSpeedMPH,WindSpeedGustMPH,Humidity,HourlyPrecipIn,Conditions,Clouds,dailyrainin,SoftwareType,DateUTC
2013-02-17 00:10:00,38.5,19.0,30.07,North,4,15.0,15.0,45,0.00,,,0.00,weatherlink.com 1.10,2013-02-17 05:10:00,
2013-02-17 00:25:00,38.2,17.0,30.08,WNW,291,6.0,21.0,43,0.00,,,0.00,weatherlink.com 1.10,2013-02-17 05:25:00,
2013-02-17 00:40:00,38.0,17.0,30.08,NNW,334,8.0,18.0,43,0.00,,,0.00,weatherlink.com 1.10,2013-02-17 05:40:00,
2013-02-17 00:55:00,37.7,17.0,30.09,NW,325,4.0,18.0,44,0.00,,,0.00,weatherlink.com 1.10,2013-02-17 05:55:00,
2013-02-17 07:27:00,32.5,19.0,30.21,NNW,338,4.0,11.0,57,0.00,,,0.00,weatherlink.com 1.10,2013-02-17 12:27:00,
2013-02-17 07:42:00,32.9,19.0,30.21,NW,321,4.0,13.0,57,0.00,,,0.00,weatherlink.com 1.10,2013-02-17 12:42:00,
2013-02-17 07:57:00,33.2,18.0,30.22,NW,315,11.0,16.0,55,0.00,,,0.00,weatherlink.com 1.10,2013-02-17 12:57:00,
2013-02-17 08:12:00,33.7,19.0,30.22,WNW,296,5.0,12.0,55,0.00,,,0.00,weatherlink.com 1.10,2013-02-17 13:12:00,
2013-02-17 08:27:00,34.3,19.0,30.23,NNW,327,5.0,17.0,54,0.00,,,0.00,weatherlink.com 1.10,2013-02-17 13:27:00,
2013-02-17 08:42:00,34.4,18.0,30.23,WNW,298,5.0,16.0,52,0.00,,,0.00,weatherlink.com 1.10,2013-02-17 13:42:00,
2013-02-17 08:57:00,35.2,19.0,30.24,NNW,333,15.0,15.0,51,0.00,,,0.00,weatherlink.com 1.10,2013-02-17 13:57:00,
2013-02-17 09:12:00,35.6,18.0,30.25,NW,321,7.0,13.0,48,0.00,,,0.00,weatherlink.com 1.10,2013-02-17 14:12:00,
2013-02-17 09:27:00,36.4,17.0,30.25,NW,314,8.0,17.0,46,0.00,,,0.00,weatherlink.com 1.10,2013-02-17 14:27:00,
2013-02-17 09:42:00,37.0,18.0,30.25,NW,314,8.0,19.0,46,0.00,,,0.00,weatherlink.com 1.10,2013-02-17 14:42:00,
2013-02-17 09:57:00,37.7,16.0,30.25,NW,319,5.0,17.0,42,0.00,,,0.00,weatherlink.com 1.10,2013-02-17 14:57:00,
2013-02-17 10:12:00,38.9,17.0,30.25,NW,308,5.0,13.0,42,0.00,,,0.00,weatherlink.com 1.10,2013-02-17 15:12:00,
2013-02-17 10:27:00,39.1,15.0,30.24,NNW,328,3.0,18.0,38,0.00,,,0.00,weatherlink.com 1.10,2013-02-17 15:27:00,
2013-02-17 10:42:00,40.0,14.0,30.25,NW,318,3.0,16.0,34,0.00,,,0.00,weatherlink.com 1.10,2013-02-17 15:42:00,
2013-02-17 10:58:00,40.8,15.0,30.25,WNW,301,6.0,13.0,35,0.00,,,0.00,weatherlink.com 1.10,2013-02-17 15:58:00,
2013-02-17 11:13:00,41.2,13.0,30.25,NNW,338,8.0,14.0,31,0.00,,,0.00,weatherlink.com 1.10,2013-02-17 16:13:00,
2013-02-17 14:28:00,47.4,15.0,30.21,NNW,332,2.0,12.0,27,0.00,,,0.00,weatherlink.com 1.10,2013-02-17 19:28:00,
2013-02-17 14:43:00,47.3,12.0,30.20,WNW,285,4.0,16.0,24,0.00,,,0.00,weatherlink.com 1.10,2013-02-17 19:43:00,
2013-02-17 14:58:00,47.8,13.0,30.20,NNW,338,6.0,14.0,25,0.00,,,0.00,weatherlink.com 1.10,2013-02-17 19:58:00,
2013-02-17 15:13:00,48.5,13.0,30.20,NW,323,9.0,15.0,24,0.00,,,0.00,weatherlink.com 1.10,2013-02-17 20:13:00,
2013-02-17 15:28:00,48.7,12.0,30.20,NW,309,9.0,14.0,23,0.00,,,0.00,weatherlink.com 1.10,2013-02-17 20:28:00,
2013-02-17 15:43:00,48.8,11.0,30.20,WNW,295,9.0,13.0,22,0.00,,,0.00,weatherlink.com 1.10,2013-02-17 20:43:00,
2013-02-17 15:58:00,48.8,10.0,30.20,NNW,340,4.0,15.0,21,0.00,,,0.00,weatherlink.com 1.10,2013-02-17 20:58:00,
2013-02-17 16:13:00,48.6,13.0,30.21,WNW,301,6.0,16.0,24,0.00,,,0.00,weatherlink.com 1.10,2013-02-17 21:13:00,
2013-02-17 16:28:00,48.9,14.0,30.21,NW,316,3.0,18.0,25,0.00,,,0.00,weatherlink.com 1.10,2013-02-17 21:28:00,
2013-02-17 16:43:00,48.7,14.0,30.21,NNW,330,6.0,15.0,25,0.00,,,0.00,weatherlink.com 1.10,2013-02-17 21:43:00,
2013-02-17 16:58:00,48.3,14.0,30.21,WNW,285,4.0,13.0,25,0.00,,,0.00,weatherlink.com 1.10,2013-02-17 21:58:00,
2013-02-17 17:13:00,47.9,13.0,30.21,WNW,302,11.0,15.0,25,0.00,,,0.00,weatherlink.com 1.10,2013-02-17 22:13:00,
2013-02-17 17:28:00,47.8,13.0,30.22,NNW,344,5.0,15.0,25,0.00,,,0.00,weatherlink.com 1.10,2013-02-17 22:28:00,
2013-02-17 17:43:00,47.3,14.0,30.22,WNW,292,5.0,14.0,26,0.00,,,0.00,weatherlink.com 1.10,2013-02-17 22:43:00,
2013-02-17 17:58:00,46.1,14.0,30.23,NNW,332,2.0,11.0,28,0.00,,,0.00,weatherlink.com 1.10,2013-02-17 22:58:00,
2013-02-17 18:13:00,45.5,15.0,30.24,NW,316,4.0,8.0,29,0.00,,,0.00,weatherlink.com 1.10,2013-02-17 23:13:00,
2013-02-17 18:59:00,44.7,17.0,30.25,NNW,340,1.0,6.0,33,0.00,,,0.00,weatherlink.com 1.10,2013-02-17 23:59:00,
2013-02-17 19:14:00,44.5,19.0,30.26,WNW,301,4.0,5.0,36,0.00,,,0.00,weatherlink.com 1.10,2013-02-18 00:14:00,
2013-02-17 19:29:00,43.9,20.0,30.27,WNW,299,0.0,3.0,38,0.00,,,0.00,weatherlink.com 1.10,2013-02-18 00:29:00,
2013-02-17 19:44:00,43.2,21.0,30.27,West,277,2.0,3.0,42,0.00,,,0.00,weatherlink.com 1.10,2013-02-18 00:44:00,
2013-02-17 19:59:00,43.5,21.0,30.27,West,264,0.0,4.0,41,0.00,,,0.00,weatherlink.com 1.10,2013-02-18 00:59:00,
2013-02-17 20:14:00,42.8,22.0,30.28,WSW,250,0.0,2.0,43,0.00,,,0.00,weatherlink.com 1.10,2013-02-18 01:14:00,
2013-02-17 20:29:00,42.7,22.0,30.29,NW,304,1.0,3.0,44,0.00,,,0.00,weatherlink.com 1.10,2013-02-18 01:29:00,
2013-02-17 20:44:00,42.7,22.0,30.29,SW,225,0.0,3.0,44,0.00,,,0.00,weatherlink.com 1.10,2013-02-18 01:44:00,
2013-02-17 20:59:00,41.8,23.0,30.29,WNW,291,0.0,2.0,47,0.00,,,0.00,weatherlink.com 1.10,2013-02-18 01:59:00,
2013-02-17 21:14:00,40.9,24.0,30.30,SSE,149,1.0,1.0,51,0.00,,,0.00,weatherlink.com 1.10,2013-02-18 02:14:00,
2013-02-17 21:29:00,39.7,23.0,30.30,SW,219,0.0,1.0,52,0.00,,,0.00,weatherlink.com 1.10,2013-02-18 02:29:00,
2013-02-17 21:44:00,39.7,23.0,30.31,SW,235,1.0,1.0,52,0.00,,,0.00,weatherlink.com 1.10,2013-02-18 02:44:00,
2013-02-17 21:59:00,39.1,24.0,30.31,SW,235,0.0,0.0,54,0.00,,,0.00,weatherlink.com 1.10,2013-02-18 02:59:00,
2013-02-17 22:14:00,39.6,24.0,30.32,WSW,255,0.0,2.0,53,0.00,,,0.00,weatherlink.com 1.10,2013-02-18 03:14:00,
2013-02-17 22:29:00,40.1,24.0,30.32,WSW,249,0.0,1.0,53,0.00,,,0.00,weatherlink.com 1.10,2013-02-18 03:29:00,
2013-02-17 22:44:00,40.4,25.0,30.32,WNW,283,0.0,2.0,54,0.00,,,0.00,weatherlink.com 1.10,2013-02-18 03:44:00,
2013-02-17 23:14:00,40.0,24.0,30.32,WSW,252,0.0,1.0,54,0.00,,,0.00,weatherlink.com 1.10,2013-02-18 04:14:00,
2013-02-17 23:29:00,40.1,24.0,30.32,WNW,283,0.0,3.0,53,0.00,,,0.00,weatherlink.com 1.10,2013-02-18 04:29:00,
2013-02-17 23:44:00,39.4,24.0,30.32,WSW,252,0.0,1.0,55,0.00,,,0.00,weatherlink.com 1.10,2013-02-18 04:44:00,
2013-02-17 23:59:00,39.9,24.0,30.32,SW,235,0.0,2.0,53,0.00,,,0.00,weatherlink.com 1.10,2013-02-18 04:59:00,